Voltar ao catálogo

AMAZONAS 2

AtivoComunicaçõesGEO
NORAD 35942·PAYLOAD·🇧🇷 Brazil

Lançado Sep 30, 2009 de Guiana Space Centre

Loading…

TLE

AtualizadoSource: Space-Track

Época: Sep 14, 2026, 11:44 UTC

1 35942U 09054A   26257.48955277 -.00000267  00000-0  00000-0 0  9996
2 35942   2.0401  81.7982 0003281  84.0790 291.8262  1.00273497 62088

Acompanhe AMAZONAS 2 em tempo real com AllMySat

Download on the App Store